Regional Weather Roundup
Issued by NWS

Home | Current Version | Previous Version | Graphics & Text | Print | Product List | Glossary On
Versions: 1 2 3 4 5 6 7 8 9 10 11 12 13 14 15 16 17 18 19 20 21 22 23 24 25 26 27 28 29 30 31 32 33 34 35 36 37 38 39 40 41 42 43 44 45 46 47 48 49 50
000
ASUS43 KMPX 280710
RWRMN
WEATHER ROUNDUP FOR MINNESOTA
NATIONAL WEATHER SERVICE TWIN CITIES/CHANHASSEN MN
200 AM CDT TUE APR 28 2015


NOTE: "FAIR" INDICATES FEW OR NO CLOUDS BELOW 12,000 FEET WITH NO
SIGNIFICANT WEATHER AND/OR OBSTRUCTIONS TO VISIBILITY. N/A MEANS
CURRENT SKY AND/OR WEATHER CONDITIONS ARE NOT AVAILABLE.

MNZ060>063-068>070-280800-
   Twin Cities Metro

CITY           SKY/WX    TMP DP  RH WIND       PRES   REMARKS
TWIN CITIES    MOCLDY    52  30  43 SW3       30.15S
ST PAUL        PTCLDY    45  35  68 CALM      30.16R
CRYSTAL        PTCLDY    45  30  55 CALM      30.14S
BLAINE         PTCLDY    43  34  70 CALM      30.15R
LAKEVILLE      CLEAR     37  34  87 CALM      30.15S
EDEN PRAIRIE   PTCLDY    49  28  44 CALM      30.14S
SOUTH ST PAUL  PTCLDY    46  33  61 CALM      30.15S
LAKE ELMO      FAIR      37  32  81 CALM      30.16S
$$
MNZ001>005-007-008-013>017-022>024-027-028-280800-
   Northwest Minnesota

CITY           SKY/WX    TMP DP  RH WIND       PRES   REMARKS
BEMIDJI        CLOUDY    50  42  75 N8        30.19R
HALLOCK        FOG       39  37  93 CALM      30.26S VSB<1/4
ROSEAU         CLOUDY    46  41  81 N7        30.24S
WARROAD        DRIZZLE   45  41  87 NW5       30.24F
THIEF RVR FALL CLOUDY    45  43  93 NW10      30.24S
CROOKSTON      LGT RAIN  45  45 100 N8        30.26R
FOSSTON        DRIZZLE   45  41  87 NW6       30.23S
DETROIT LAKES  CLOUDY    50  43  76 NW12      30.21S
MOORHEAD       CLOUDY    46  43  87 N14       30.24S
PARK RAPIDS    PTCLDY    54  42  64 N10       30.16S
MAHNOMEN       LGT RAIN  47  42  81 N7        30.22R
$$
MNZ006-009>011-018-025>026-280800-
   North Central Minnesota

CITY           SKY/WX    TMP DP  RH WIND       PRES   REMARKS
BAUDETTE       LGT RAIN  44  41  89 NW9       30.22R
FLAG ISLAND    CLOUDY    43  43 100 N9        30.22F
INTL FALLS     CLOUDY    50  43  77 NW12      30.17R
WASKISH        DRIZZLE   48  43  81 CALM      30.20S
BIG FORK       MOCLDY    50  37  62 NW5       30.16F
LONGVILLE      PTCLDY    52  41  66 NW6       30.15R
GRAND RAPIDS   PTCLDY    39  25  56 SE3       30.13S
CRANE LAKE     MOCLDY    37  32  81 CALM      30.15F
ORR            MOCLDY    45  34  65 CALM      30.13R
COOK           MOCLDY    39  34  81 CALM      30.14F
WALKER         PTSUNNY   52  42  67 NW3       30.17R
$$
MNZ012-019>021-037-280800-
   Northeast Minnesota

CITY           SKY/WX    TMP DP  RH WIND       PRES   REMARKS
DULUTH         PTCLDY    45  27  49 E3        30.14S
ELY            PTCLDY    34  27  75 CALM      30.14S
HIBBING        PTCLDY    36  28  73 NW3       30.14S
EVELETH        PTCLDY    36  32  87 CALM      30.15S
DULUTH HARBOR  PTCLDY    41  34  75 CALM      30.17R
TWO HARBORS    PTCLDY    37  28  70 CALM      30.13S
SILVER BAY     PTCLDY    30  27  86 CALM      30.13F
GRAND MARAIS     N/A     34  28  79 NW5       30.14F WCI  30
G MARAIS ARPRT CLEAR     32  23  69 CALM      30.14F
$$
MNZ029>031-032-039>041-046>048-054>057-064-280800-
   West Central Minnesota

CITY           SKY/WX    TMP DP  RH WIND       PRES   REMARKS
FERGUS FALLS   CLOUDY    52  39  62 N13G18    30.20S
WHEATON        MOCLDY    48  39  71 NW9G18    30.24R
MORRIS         PTCLDY    48  39  71 NW13      30.19R
ALEXANDRIA     PTCLDY    49  34  56 N6        30.18S
ELBOW LAKE     CLOUDY    51  42  71 N8        30.18S
WADENA         MOCLDY    48  34  57 NW5       30.16S
GLENWOOD       CLEAR     48  28  46 NW7       30.17S
APPLETON       PTCLDY    52  39  62 N16       30.19R
BENSON         CLEAR     45  37  76 N8        30.18S
ORTONVILLE     PTCLDY    52  39  62 NW12      30.21R
MADISON        CLEAR     50  39  66 NW13      30.20S
WILLMAR        FAIR      46  32  57 CALM      30.18S
$$
MNZ033>034-036-042>043-049>051-058-059-280800-
   Central Minnesota

CITY           SKY/WX    TMP DP  RH WIND       PRES   REMARKS
ST CLOUD       CLEAR     39  32  76 CALM      30.14S
SAUK CENTRE    FAIR      41  31  67 CALM      30.16S
PAYNESVILLE    CLEAR     38  31  77 SW7       30.17R
AITKIN         CLEAR     37  28  70 CALM      30.12S
PINE RIVER     CLEAR     52  37  58 NW6       30.18S
BRAINERD       CLEAR     42  33  70 CALM      30.14S
STAPLES        CLEAR     43  30  61 N5        30.16R
LONG PRAIRIE   FAIR      41  32  70 CALM      30.16S
LITTLE FALLS   CLEAR     39  32  75 CALM      30.14S
LITCHFIELD     CLEAR     52  30  43 W3        30.16S
BUFFALO        PTCLDY    42  32  66 CALM      30.16S
MAPLE LAKE     CLEAR     42  39  89 CALM      30.15F
$$
MNZ037-044-045-052-053-280800-
   East Central Minnesota

CITY           SKY/WX    TMP DP  RH WIND       PRES   REMARKS
PRINCETON      PTCLDY    41  30  65 CALM      30.14S
MORA           CLEAR     36  30  80 CALM      30.16R
CAMBRIDGE      PTCLDY    45  34  65 CALM      30.13R
RUSH CITY      PTCLDY    40  30  67 CALM      30.14S
MOOSE LAKE     CLEAR     37  30  75 CALM      30.13S
HINCKLEY       FAIR      37  28  70 CALM      30.14S
CLOQUET        PTCLDY    37  28  70 CALM      30.14S
MCGREGOR       CLEAR     37  30  75 CALM      30.15R
$$
MNZ071>073-080-081-089-090-097-098-280800-
   Southwest Minnesota

CITY           SKY/WX    TMP DP  RH WIND       PRES   REMARKS
MONTEVIDEO     PTCLDY    46  30  53 N8        30.19S
GRANITE FALLS  PTCLDY    40  22  49 W6        30.20R
CANBY          CLEAR     48  40  73 NW9       30.22S
MARSHALL       CLEAR     43  27  52 NW12      30.19R
REDWOOD FALLS  PTCLDY    48  28  46 W5        30.17S
OLIVIA         PTCLDY    41  25  52 CALM      30.16S
PIPESTONE      CLEAR     48  28  46 CALM      30.19F
WINDOM         PTCLDY    41  27  56 CALM      30.19S
WORTHINGTON    PTCLDY    43  21  42 NW3       30.20S
JACKSON        PTCLDY    45  27  49 W3        30.19S
TRACY          PTCLDY    47  25  41 SW7       30.18F
SLAYTON        CLEAR     40  24  54 CALM      30.20S
$$
MNZ065>067-074>077-082>085-091>093-280800-
   South Central Minnesota

CITY           SKY/WX    TMP DP  RH WIND       PRES   REMARKS
MANKATO        PTCLDY    50  25  37 W5        30.17S
NEW ULM        PTCLDY    43  21  42 W3        30.17S
ST JAMES       PTCLDY    45  27  49 SW6       30.18S
FAIRMONT       PTCLDY    45  28  53 W6        30.17S
GLENCOE        PTCLDY    44  30  57 CALM      30.15S
FARIBAULT      CLEAR     39  32  75 CALM      30.16S
OWATONNA       CLEAR     39  30  70 CALM      30.16S
WASECA         PTCLDY    43  28  56 CALM      30.18S
ALBERT LEA     CLEAR     45  30  57 CALM      30.16S
$$
MNZ078>079-086>088-094>096-280800-
   Southeast Minnesota

CITY           SKY/WX    TMP DP  RH WIND       PRES   REMARKS
ROCHESTER      CLEAR     49  27  42 N6        30.16S
RED WING       CLEAR     41  32  70 CALM      30.15R
STANTON        CLEAR     37  29  72 CALM      30.15R
DODGE CENTER   CLEAR     43  30  61 N3        30.16S
WINONA         CLEAR     43  36  75 CALM      30.15R
AUSTIN         CLEAR     43  34  70 CALM      30.15S
PRESTON        CLEAR     49  28  45 N5        30.16R
$$
ABBREVIATIONS USED IN REMARKS
   TC - TEMPERATURES IN CELSIUS
  WCI - WIND CHILL INDEX
   HX - HEAT INDEX
  VSB - VISIBILITY
$$


USA.gov is the U.S. government's official web portal to all federal, state and local government web resources and services.